Regional Weather Roundup
Issued by NWS

Home | Current Version | Previous Version | Graphics & Text | Print | Product List | Glossary On
Versions: 1 2 3 4 5 6 7 8 9 10 11 12 13 14 15 16 17 18 19 20 21 22 23 24 25 26 27 28 29 30 31 32 33 34 35 36 37 38 39 40 41 42 43 44 45 46 47 48 49 50
000
ASUS45 KTFX 030804
RWRMT
MONTANA HOURLY WEATHER ROUNDUP
NATIONAL WEATHER SERVICE GREAT FALLS MT
104 AM MST TUE MAR 3 2015

NOTE: "FAIR" INDICATES FEW OR NO CLOUDS BELOW 12000 FEET WITH NO
SIGNIFICANT WEATHER AND/OR OBSTRUCTIONS TO VISIBILITY.

* THESE STATIONS ARE NOT UNDER NWS QUALITY CONTROL. THEY DO NOT
   REPORT WEATHER SUCH AS PRECIPITATION OR FOG.

MTZ001>007-043-030900-
WEST OF THE DIVIDE
CITY           SKY/WX    TMP DP  RH WIND       PRES   REMARKS
KALISPELL      CLOUDY    19   1  45 NE15      30.11R WCI   5
MISSOULA       MOCLDY    21  10  62 SE14      30.08R WCI   8
BUTTE          LGT SNOW  12   3  67 N7        29.90R VSB 3    WCI   1
MULLAN PASS    FAIR       9   5  84 VRB3      29.85R
* ANACONDA     CLOUDY    12   3  67 N16G23     N/A   WCI  -5
* ESSEX        N/A       14  -1  51 SE2G11     N/A
* LINCOLN      N/A       11   3  70 NE11G24    N/A   WCI  -3
* LOOKOUT PASS N/A       14   9  80 E3         N/A
* POLSON       N/A       20   4  50 NE4G9      N/A
* RONAN APT    PTCLDY    21  14  74 N/A        N/A
* SEELEY LAKE  N/A       15   9  77 NE1        N/A
* THOMP F APT  PTCLDY    21  10  62 N5G20      N/A   WCI  14
$$

MTZ008-052>055-030900-
SOUTHWEST MONTANA
CITY           SKY/WX    TMP DP  RH WIND       PRES   REMARKS
BOZEMAN        LGT SNOW  16  10  77 N16       29.97R VSB 1 1/4 WCI   1
DILLON         LGT SNOW  16   9  74 NE23      29.86R WCI  -2
* W YELLOWSTON CLOUDY    16  11  81 N4G14      N/A
* THREE FORKS  CLOUDY    16   9  74 N20G29     N/A   WCI  -1
* BOULDER HILL N/A        9   4  80 N19G25     N/A   WCI -10
* MONIDA PASS  N/A       14   9  80 NE16G21    N/A   WCI  -2
* RAYNOLDS PAS N/A        7   7 100 N21G34     N/A   WCI -13
* WHITEHALL    N/A       15   7  70 NE10G22    N/A   WCI   3
* WISE RIVER   N/A       11   0  61 E10G17     N/A   WCI  -2
$$

MTZ009>010-012-014-046-048-049-054-030900-
EAST SLOPES AND CENTRAL MONTANA
CITY           SKY/WX    TMP DP  RH WIND       PRES   REMARKS
CUT BANK       CLOUDY     7  -2  66 NW10      30.18R WCI  -7
GREAT FALLS    CLOUDY    10   7  88 N7        30.17R WCI  -1
HELENA         CLOUDY    16   7  67 N12       30.10R WCI   3
* DEARBORN     N/A       14  10  84 VRB11G17    N/A   WCI   1
* EAST GLACIER N/A        4   0  83 E12        N/A   WCI -12
* MONARCH      N/A        5  -1  76 NW10G15    N/A   WCI -10
* PENDROY      N/A        5   3  91 NE8        N/A   WCI  -8
* ROGERS PASS  N/A        5   2  87 S3G9       N/A
* SWEET GRASS  N/A        2  -8  62 N15        N/A   WCI -17
$$

MTZ011-013-016-021-035-040-045-047-050-051-030900-
NORTH CENTRAL MONTANA
CITY           SKY/WX    TMP DP  RH WIND       PRES   REMARKS
HAVRE          CLEAR      9   0  66 N5        30.23R
LEWISTOWN      LGT SNOW  10   7  88 N9        30.07R VSB 1 1/4 WCI  -3
* N BAR RANCH  HAZE       9   1  70 N20G28    30.02R VSB 2 1/2 WCI -10
* CHESTER      N/A        8  -1  66 N3G8       N/A
* DENTON       N/A       13   4  67 NW14G21    N/A   WCI  -2
* GEYSER       N/A       11   2  67 N9         N/A   WCI  -2
* JUDITH GAP   N/A        7   7 100 N29G43     N/A   WCI -16
* LOMA         N/A       12  -1  56 NW14G20    N/A   WCI  -4
$$

MTZ017>020-022>027-061-062-030900-
NORTHEAST MONTANA
CITY           SKY/WX    TMP DP  RH WIND       PRES   REMARKS
GLASGOW        MOCLDY    10  -2  58 N21G31    30.13R WCI  -9
GLENDIVE       CLOUDY    12   7  80 N22       30.02R WCI  -7
JORDAN         CLOUDY    16   5  62 N24       30.08R WCI  -2
SIDNEY         CLOUDY    12   1  61 NW20G25   30.06S WCI  -6
WOLF POINT     CLOUDY    14   1  56 N14       30.12R WCI  -1
* BEAVER HILL  N/A       11   3  70 NW30G41    N/A   WCI -11
* CIRCLE       N/A       14   5  67 N9G17      N/A   WCI   2
* LINDSAY DVD  N/A       11   6  80 NW23G34    N/A   WCI  -9
* NAVAJO       N/A        4  -4  69 N21G31     N/A   WCI -17
* SACO         N/A       10   1  67 NW17G22    N/A   WCI  -8
$$

MTZ028>042-056>058-030900-
SOUTHCENTRAL AND SOUTHEAST MONTANA
CITY           SKY/WX    TMP DP  RH WIND       PRES   REMARKS
BAKER          LGT SNOW  16   9  74 N18G30    29.93R
BILLINGS       LGT SNOW  16  10  77 NE8       30.05R WCI   5
LIVINGSTON     LGT SNOW  14   9  80 E18       29.97R VSB 1 3/4 WCI  -3
MILES CITY     CLOUDY    18   9  68 N20       30.04R WCI   2
* LAUREL APT   CLOUDY    16   9  74 N10G15     N/A   WCI   4
* ROUNDUP APT  CLOUDY    16   7  67 N10G15     N/A   WCI   4
* ALZADA       N/A       16  13  88 NW12G20    N/A   WCI   3
* HYSHAM       N/A       15   8  74 NW7        N/A   WCI   5
* LAME DEER    N/A       11   8  88 N16G22     N/A   WCI  -6
* REED POINT   N/A       16  13  88 N/A        N/A
* ROSCOE HILL  N/A       10   6  84 N6         N/A
$$

REGIONAL REPORTS...DAKOTAS
CITY           SKY/WX    TMP DP  RH WIND       PRES   REMARKS
WILLISTON      CLOUDY    10   0  64 NW23G32   30.01R WCI -10
DICKINSON      LGT SNOW  16   9  74 NW18G29   29.89R
BEACH          CLOUDY    12   7  80 N29G36    29.96R WCI  -9
CROSBY         CLEAR      5   0  80 NW22G29   30.00R WCI -16
WATFORD CITY   LGT SNOW  10   5  80 N24G32    29.96R WCI -10
BISMARCK       CLOUDY    18  10  71 NW20G30   29.89R WCI   2
GRAND FORKS    CLOUDY    25  18  75 SW8       29.74S WCI  16
FARGO          CLOUDY    28  21  75 S17       29.73F WCI  16
BUFFALO SD     CLOUDY    18  12  77 NW21      29.79R WCI   1
RAPID CITY     SNOW      25  21  85 N33G41    29.71S VSB 1/2  WCI   7
$$

REGIONAL REPORTS...WYOMING/IDAHO/WASHINGTON
CITY           SKY/WX    TMP DP  RH WIND       PRES   REMARKS
GILLETTE       LGT SNOW  18  12  77 N26G33    29.81R VSB 3/4
SHERIDAN       LGT SNOW  18  12  77 NW17      29.94R VSB 1    WCI   3
CODY           CLOUDY    16  10  77 NW13G21   29.88R VSB 3    WCI   2
YELLOWSTONE LA MOCLDY    12   7  80 VRB5      29.65S WCI   4
SALMON         CLOUDY    28  12  51 NE20G26   29.79R WCI  15
MULLAN PASS    FAIR       9   5  84 VRB3      29.85S
SAND POINT     CLEAR     28  12  51 NE14      30.10R WCI  17
SPOKANE        FAIR      25  18  75 N6        30.05R WCI  18

$$




USA.gov is the U.S. government's official web portal to all federal, state and local government web resources and services.